Location: Bletchingley
(51.2333°N, 0.1000°W)
Time: 15:12:27
(UTC+00:00)

Cosmos 2266 Rocket - Pass Details

Date: 26 January 2021
Orbit: 934 x 1008 km, 82.9° (Epoch: 05 March)

Event Time Altitude Azimuth Distance (km) Brightness Sun altitude
Rises 18:19:45 0° 146° (SE) 3,677 6.8 -15.4°
Reaches altitude 10° 18:22:44 10° 133° (SE) 2,721 6.0 -15.8°
Enters shadow 18:26:05 22° 102° (ESE) 1,983 5.1 -16.3°
Exits shadow 18:33:07 - 27° (NNE) 2,950 6.2 -17.4°
Sets 18:35:12 0° 18° (NNE) 3,635 6.7 -17.7°
